TimeCDT,TemperatureF,Dew PointF,Humidity,Sea Level PressureIn,VisibilityMPH,Wind Direction,Wind SpeedMPH,Gust SpeedMPH,PrecipitationIn,Events,Conditions,WindDirDegrees,DateUTC
12:15 AM,35.6,35.6,100,29.93,5.0,NE,9.2,-,0.04,Rain,Rain,50,2012-10-23 05:15:00
12:35 AM,35.6,35.6,100,29.92,10.0,ENE,10.4,-,0.06,Rain,Light Rain,60,2012-10-23 05:35:00
1:15 AM,35.6,35.6,100,29.89,10.0,East,12.7,-,0.01,Rain,Light Rain,80,2012-10-23 06:15:00
1:35 AM,35.6,35.6,100,29.86,10.0,ENE,15.0,19.6,0.01,Rain,Light Rain,70,2012-10-23 06:35:00
1:55 AM,37.4,37.4,100,29.83,10.0,ENE,17.3,24.2,0.01,,Overcast,70,2012-10-23 06:55:00
2:35 AM,37.4,37.4,100,29.84,8.0,East,13.8,19.6,0.01,Rain,Light Rain,80,2012-10-23 07:35:00
2:55 AM,37.4,37.4,100,29.86,9.0,ENE,9.2,-,0.04,Rain,Light Rain,60,2012-10-23 07:55:00
3:15 AM,37.4,37.4,100,29.86,4.0,ENE,6.9,-,0.03,Rain,Rain,70,2012-10-23 08:15:00
3:35 AM,37.4,37.4,100,29.83,3.0,East,9.2,-,0.08,Rain,Rain,80,2012-10-23 08:35:00
3:55 AM,37.4,37.4,100,29.80,10.0,East,16.1,-,0.10,Rain,Light Rain,80,2012-10-23 08:55:00
4:15 AM,37.4,37.4,100,29.79,10.0,East,13.8,19.6,N/A,,Overcast,80,2012-10-23 09:15:00
4:35 AM,37.4,37.4,100,29.79,10.0,East,12.7,21.9,N/A,,Overcast,90,2012-10-23 09:35:00
4:55 AM,37.4,37.4,100,29.79,3.0,East,12.7,17.3,0.03,Rain,Rain,90,2012-10-23 09:55:00
5:15 AM,37.4,37.4,100,29.79,10.0,East,10.4,-,N/A,Rain,Light Rain,90,2012-10-23 10:15:00
5:55 AM,37.4,37.4,100,29.77,8.0,East,13.8,-,0.01,Rain,Light Rain,90,2012-10-23 10:55:00
6:35 AM,37.4,37.4,100,29.76,5.0,East,11.5,-,N/A,Rain,Light Rain,100,2012-10-23 11:35:00
6:55 AM,39.2,39.2,100,29.75,4.0,East,11.5,16.1,N/A,Rain,Light Rain,100,2012-10-23 11:55:00
7:15 AM,39.2,39.2,100,29.74,8.0,East,12.7,-,N/A,Rain,Light Rain,100,2012-10-23 12:15:00
7:55 AM,39.2,39.2,100,29.74,1.5,ESE,6.9,-,N/A,Rain,Light Rain,120,2012-10-23 12:55:00
9:35 AM,41.0,41.0,100,29.68,1.5,ESE,12.7,-,N/A,Rain,Light Rain,110,2012-10-23 14:35:00
10:15 AM,41.0,41.0,100,29.72,3.0,SSE,8.1,-,N/A,Rain,Light Rain,150,2012-10-23 15:15:00
10:35 AM,41.0,41.0,100,29.71,2.5,SE,9.2,-,0.02,Rain,Light Rain,140,2012-10-23 15:35:00
10:55 AM,41.0,41.0,100,29.69,1.2,SE,11.5,16.1,0.03,Rain,Light Rain,140,2012-10-23 15:55:00
11:15 AM,41.0,41.0,100,29.69,1.8,SE,12.7,-,0.03,Rain,Rain,140,2012-10-23 16:15:00
11:35 AM,41.0,41.0,100,29.68,8.0,SE,11.5,-,0.05,Rain,Light Rain,140,2012-10-23 16:35:00
11:55 AM,42.8,42.8,100,29.68,2.5,SSE,15.0,-,0.05,,Overcast,150,2012-10-23 16:55:00
12:15 PM,42.8,42.8,100,29.68,1.2,SSE,12.7,16.1,N/A,Rain,Light Rain,150,2012-10-23 17:15:00
12:35 PM,42.8,42.8,100,29.68,9.0,SSE,10.4,-,N/A,Rain,Light Rain,150,2012-10-23 17:35:00
12:55 PM,44.6,44.6,100,29.67,7.0,SSE,8.1,-,N/A,Rain,Light Rain,160,2012-10-23 17:55:00
1:15 PM,44.6,44.6,100,29.67,9.0,SSE,9.2,-,N/A,Rain,Light Rain,160,2012-10-23 18:15:00
1:35 PM,44.6,44.6,100,29.66,2.5,South,5.8,-,0.01,Rain,Light Rain,170,2012-10-23 18:35:00
1:55 PM,44.6,44.6,100,29.64,6.0,South,5.8,-,0.01,Rain,Light Rain,170,2012-10-23 18:55:00
2:15 PM,44.6,44.6,100,29.65,6.0,South,9.2,-,N/A,Rain,Light Rain,180,2012-10-23 19:15:00
2:35 PM,44.6,44.6,100,29.65,1.5,South,6.9,-,0.04,Rain,Rain,180,2012-10-23 19:35:00
3:15 PM,44.6,44.6,100,29.64,3.0,SW,3.5,-,0.02,Rain,Light Rain,230,2012-10-23 20:15:00
3:35 PM,44.6,44.6,100,29.64,2.0,Calm,Calm,-,0.09,Rain,Rain,0,2012-10-23 20:35:00
3:55 PM,44.6,44.6,100,29.65,2.0,SW,3.5,-,0.12,Rain,Light Rain,230,2012-10-23 20:55:00
4:15 PM,44.6,44.6,100,29.64,10.0,Calm,Calm,-,N/A,Rain,Light Rain,0,2012-10-23 21:15:00
4:35 PM,44.6,44.6,100,29.64,10.0,Calm,Calm,-,N/A,Rain,Light Rain,0,2012-10-23 21:35:00
4:55 PM,44.6,44.6,100,29.64,10.0,WNW,4.6,-,N/A,Rain,Light Rain,290,2012-10-23 21:55:00
5:15 PM,46.4,46.4,100,29.65,10.0,West,6.9,-,N/A,Rain,Light Rain,270,2012-10-23 22:15:00
5:35 PM,44.6,44.6,100,29.66,10.0,WNW,6.9,-,0.01,Rain,Light Rain,290,2012-10-23 22:35:00
5:55 PM,44.6,44.6,100,29.66,6.0,WNW,5.8,-,0.03,Rain,Light Rain,300,2012-10-23 22:55:00
6:15 PM,44.6,44.6,100,29.66,10.0,NNW,6.9,-,N/A,Rain,Light Rain,330,2012-10-23 23:15:00
6:35 PM,44.6,44.6,100,29.67,10.0,NNW,8.1,-,N/A,Rain,Light Rain,330,2012-10-23 23:35:00
6:55 PM,44.6,44.6,100,29.66,10.0,North,9.2,-,0.01,Rain,Light Rain,360,2012-10-23 23:55:00
7:15 PM,42.8,42.8,100,29.68,10.0,WNW,8.1,-,N/A,Rain,Light Rain,300,2012-10-24 00:15:00
7:35 PM,42.8,42.8,100,29.70,10.0,West,9.2,-,N/A,,Overcast,270,2012-10-24 00:35:00
7:55 PM,42.8,42.8,100,29.71,10.0,WNW,16.1,20.7,N/A,,Overcast,290,2012-10-24 00:55:00
8:15 PM,41.0,41.0,100,29.72,10.0,West,17.3,-,N/A,,Overcast,280,2012-10-24 01:15:00
8:35 PM,41.0,41.0,100,29.72,10.0,WNW,13.8,-,N/A,,Overcast,300,2012-10-24 01:35:00
8:55 PM,41.0,41.0,100,29.73,10.0,West,11.5,-,N/A,,Overcast,280,2012-10-24 01:55:00
9:15 PM,41.0,41.0,100,29.73,10.0,WNW,13.8,-,N/A,,Overcast,290,2012-10-24 02:15:00
9:35 PM,41.0,41.0,100,29.73,10.0,West,11.5,16.1,N/A,,Overcast,280,2012-10-24 02:35:00
9:55 PM,41.0,41.0,100,29.74,10.0,West,15.0,19.6,N/A,,Overcast,270,2012-10-24 02:55:00
10:15 PM,39.2,39.2,100,29.75,10.0,West,16.1,20.7,N/A,,Overcast,270,2012-10-24 03:15:00
10:35 PM,39.2,39.2,100,29.76,10.0,West,18.4,21.9,N/A,,Overcast,270,2012-10-24 03:35:00
10:55 PM,37.4,37.4,100,29.77,10.0,West,18.4,-,N/A,,Overcast,260,2012-10-24 03:55:00
11:15 PM,37.4,37.4,100,29.77,10.0,West,13.8,-,N/A,,Overcast,270,2012-10-24 04:15:00
11:35 PM,37.4,37.4,100,29.77,10.0,WNW,16.1,20.7,N/A,,Overcast,290,2012-10-24 04:35:00
11:55 PM,37.4,37.4,100,29.76,10.0,WNW,19.6,25.3,N/A,,Overcast,300,2012-10-24 04:55:00